FW1511 Weather Reports


Display with metric or nautical units.
time (UTC)temp
F
wind
direction
speed
MPH
gust
MPH
rain 1hr
in
rain 24hr
in
rain mn
in
humidity
%
barometer
mb
20260502170502 55 275 1.0 6.0 0.00 0.00 0.00 86 1015.9
20260502163802 54 293 1.0 3.0 0.00 0.00 0.00 87 1015.6
20260502163002 53 283 1.0 3.0 0.00 0.00 0.00 87 1016.2
20260502162902 54 270 2.0 3.0 0.00 0.00 0.00 88 1015.6
20260502162002 53 282 1.0 4.0 0.00 0.00 0.00 88 1015.6
20260502161603 53 278 1.0 4.0 0.00 0.00 0.00 90 1016.1
20260502161102 53 271 1.0 4.0 0.00 0.00 0.00 90 1015.6
20260502160202 52 292 1.0 5.0 0.00 0.00 0.00 90 1015.6
20260502151702 50 237 1.0 2.0 0.00 0.00 0.00 93 1015.5
20260502151612 50 238 0.0 2.0 0.00 0.00 0.00 93 1016.1
20260502150802 50 261 1.0 4.0 0.00 0.00 0.00 94 1015.5
20260502130202 49 0 0.0 0.0 0.00 0.00 0.00 93 1015.3
20260502123002 49 224 0.0 2.0 0.00 0.00 0.00 92 1015.6
20260502122602 50 259 0.0 3.0 0.00 0.00 0.00 92 1015.1
20260502121702 50 0 0.0 2.0 0.00 0.00 0.00 92 1015.2
20260502121604 50 283 0.0 2.0 0.00 0.00 0.00 92 1015.7
20260502120802 50 0 0.0 1.0 0.00 0.00 0.00 92 1015.4
20260502115002 50 0 0.0 3.0 0.00 0.00 0.00 93 1015.6
20260502114604 50 166 0.0 3.0 0.00 0.00 0.00 93 1016.2
20260502114102 50 0 0.0 0.0 0.00 0.00 0.00 93 1015.6
20260502113202 50 0 0.0 0.0 0.00 0.00 0.00 93 1015.6
20260502113002 49 158 0.0 0.0 0.00 0.00 0.00 92 1016.2
20260502112305 50 0 0.0 0.0 0.00 0.00 0.00 92 1015.6
20260502111603 50 158 0.0 0.0 0.00 0.00 0.00 92 1016.2
20260502111402 50 0 0.0 0.0 0.00 0.00 0.00 92 1015.7
20260502110502 50 0 0.0 0.0 0.00 0.00 0.00 92 1015.7
20260502110005 50 175 0.0 0.0 0.00 0.00 0.00 92 1016.3
20260502105603 50 0 0.0 0.0 0.00 0.00 0.00 92 1015.7
20260502104603 50 165 0.0 0.0 0.00 0.00 0.00 92 1016.3
20260502103802 50 0 0.0 0.0 0.00 0.00 0.00 92 1015.9
20260502103003 50 179 0.0 1.0 0.00 0.00 0.00 92 1016.4
20260502102004 50 0 1.0 0.0 0.00 0.00 0.00 92 1016.2
20260502101603 50 173 0.0 1.0 0.00 0.00 0.00 92 1016.7
20260502101102 50 134 0.0 6.0 0.00 0.00 0.00 92 1016.6
20260502100203 50 118 1.0 3.0 0.00 0.00 0.00 93 1016.6
20260502091509 49 110 0.0 3.0 0.00 0.00 0.00 91 1016.2
20260502090802 50 164 1.0 4.0 0.00 0.00 0.00 91 1015.6
20260502090116 50 195 1.0 7.0 0.00 0.00 0.00 91 1016.2
20260502071503 50 155 1.0 4.0 0.00 0.00 0.00 90 1016.6
20260502071102 50 130 1.0 2.0 0.00 0.00 0.00 90 1016.0
20260502070203 51 123 1.0 6.0 0.00 0.00 0.00 89 1016.0
20260502064507 50 155 0.0 3.0 0.00 0.00 0.00 89 1016.5
20260502064402 50 149 0.0 3.0 0.00 0.00 0.00 89 1016.1
20260502063503 51 155 1.0 3.0 0.00 0.00 0.00 89 1016.0
20260502063002 50 150 0.0 4.0 0.00 0.00 0.00 89 1016.7
20260502061702 51 154 1.0 5.0 0.00 0.00 0.00 88 1016.1
20260502061604 51 148 0.0 5.0 0.00 0.00 0.00 89 1016.6
20260502060003 51 119 0.0 8.0 0.00 0.00 0.00 88 1016.4
20260502055902 51 162 1.0 8.0 0.00 0.00 0.00 88 1016.0
20260502055003 51 156 1.0 5.0 0.00 0.00 0.00 88 1016.0
20260502054605 51 168 0.0 3.0 0.00 0.00 0.00 88 1016.5
20260502054102 52 142 1.0 7.0 0.00 0.00 0.00 88 1016.1
20260502053004 51 127 0.0 7.0 0.00 0.00 0.00 87 1016.7
20260502052305 52 149 1.0 7.0 0.00 0.00 0.00 87 1016.0
20260502051702 52 150 0.0 6.0 0.00 0.00 0.00 87 1016.5
20260502051403 52 142 1.0 6.0 0.00 0.00 0.00 86 1015.9
20260502050503 52 199 2.0 8.0 0.00 0.00 0.00 86 1016.1
20260502050003 52 186 1.0 6.0 0.00 0.00 0.00 86 1016.4
20260502045602 52 160 2.0 6.0 0.00 0.00 0.00 85 1015.9
20260502044610 52 202 3.0 8.0 0.00 0.00 0.00 85 1016.4
20260502043802 53 158 1.0 10.0 0.00 0.00 0.00 84 1015.6
20260502043001 53 121 0.0 6.0 0.00 0.00 0.00 83 1016.2
20260502042902 53 187 2.0 7.0 0.00 0.00 0.00 83 1015.5
20260502041600 53 211 4.0 11.0 0.00 0.00 0.00 82 1016.0
20260502040202 54 186 2.0 11.0 0.00 0.00 0.00 81 1015.2
20260502040001 54 160 0.0 11.0 0.00 0.00 0.00 81 1015.6
20260502035306 55 200 2.0 6.0 0.00 0.00 0.00 80 1015.2
20260502034601 55 127 1.0 10.0 0.00 0.00 0.00 79 1015.5
20260502033502 56 156 2.0 6.0 0.00 0.00 0.00 78 1014.8
20260502033002 56 169 2.0 7.0 0.00 0.00 0.00 78 1015.3
20260502032602 57 189 2.0 9.0 0.00 0.00 0.00 77 1014.8
20260502031703 57 162 2.0 6.0 0.00 0.00 0.00 77 1014.7
20260502031612 57 152 1.0 6.0 0.00 0.00 0.00 77 1015.2
20260502030802 58 156 3.0 11.0 0.00 0.00 0.00 76 1014.5
20260502030000 58 126 2.0 10.0 0.00 0.00 0.00 75 1015.0
20260502025903 58 174 2.0 10.0 0.00 0.00 0.00 75 1014.4
20260502024601 59 186 1.0 9.0 0.00 0.00 0.00 74 1014.8
20260502023002 60 198 2.0 6.0 0.00 0.00 0.00 71 1014.4
20260502022306 61 193 2.0 6.0 0.00 0.00 0.00 70 1013.9
20260502021601 62 238 1.0 5.0 0.00 0.00 0.00 68 1014.4
20260502021403 62 158 2.0 8.0 0.00 0.00 0.00 68 1013.9
20260502020502 63 165 2.0 8.0 0.00 0.00 0.00 67 1013.9
20260502020001 62 340 3.0 10.0 0.00 0.00 0.00 66 1014.3
20260502014703 64 152 2.0 8.0 0.00 0.00 0.00 66 1013.9
20260502014600 64 146 1.0 8.0 0.00 0.00 0.00 65 1014.4
20260502013803 65 198 3.0 9.0 0.00 0.00 0.00 65 1013.7
20260502013001 65 150 2.0 8.0 0.00 0.00 0.00 63 1014.5
20260502012903 65 202 3.0 8.0 0.00 0.00 0.00 63 1013.8
20260502012003 66 210 3.0 9.0 0.00 0.00 0.00 64 1014.0
20260502011602 65 218 2.0 8.0 0.00 0.00 0.00 64 1014.5
20260502010202 68 205 2.0 10.0 0.00 0.00 0.00 62 1014.0
20260502010001 67 248 4.0 10.0 0.00 0.00 0.00 61 1014.5
20260502005306 69 178 3.0 8.0 0.00 0.00 0.00 62 1014.0
20260502004602 68 218 2.0 13.0 0.00 0.00 0.00 62 1014.4
20260502004403 69 212 3.0 13.0 0.00 0.00 0.00 61 1013.8
20260502003503 70 179 3.0 9.0 0.00 0.00 0.00 62 1013.6
20260502003004 69 143 1.0 9.0 0.00 0.00 0.00 62 1014.1
20260502002603 70 217 3.0 10.0 0.00 0.00 0.00 62 1013.7
20260502001703 70 221 3.0 12.0 0.00 0.00 0.00 62 1013.5
20260502001601 70 119 2.0 12.0 0.00 0.00 0.00 60 1014.0
20260502000803 70 194 3.0 9.0 0.00 0.00 0.00 61 1013.5
20260502000002 71 250 1.0 9.0 0.00 0.00 0.00 61 1014.0
20260501235903 71 227 3.0 9.0 0.00 0.00 0.00 61 1013.5
20260501235003 71 183 3.0 9.0 0.00 0.00 0.00 60 1013.6
20260501234603 71 146 3.0 11.0 0.00 0.00 0.00 61 1014.1
20260501233002 73 121 4.0 12.0 0.00 0.00 0.00 57 1014.1
20260501232305 74 187 3.0 10.0 0.00 0.00 0.00 57 1013.6
20260501231610 74 140 2.0 8.0 0.00 0.00 0.00 56 1014.1
20260501231403 75 172 2.0 9.0 0.00 0.00 0.00 56 1013.6
20260501230504 76 159 3.0 9.0 0.00 0.00 0.00 56 1013.7
20260501230002 75 153 2.0 9.0 0.00 0.00 0.00 54 1014.1
20260501225603 75 216 2.0 8.0 0.00 0.00 0.00 56 1013.6
20260501224703 75 225 3.0 8.0 0.00 0.00 0.00 54 1013.6
20260501224603 75 159 1.0 8.0 0.00 0.00 0.00 55 1014.1
20260501223803 74 239 3.0 8.0 0.00 0.00 0.00 56 1013.7
20260501223002 74 240 2.0 8.0 0.00 0.00 0.00 55 1014.3
20260501222903 74 195 3.0 6.0 0.00 0.00 0.00 57 1013.9
20260501222003 74 181 3.0 8.0 0.00 0.00 0.00 57 1013.9
20260501221601 73 110 2.0 8.0 0.00 0.00 0.00 55 1014.4
20260501221103 74 175 2.0 10.0 0.00 0.00 0.00 54 1013.9
20260501220001 74 137 1.0 11.0 0.00 0.00 0.00 56 1014.6
20260501215305 74 159 2.0 11.0 0.00 0.00 0.00 59 1014.1
20260501214612 72 181 2.0 7.0 0.00 0.00 0.00 57 1014.6
20260501214403 73 227 1.0 7.0 0.00 0.00 0.00 58 1014.2
20260501213503 73 204 2.0 5.0 0.00 0.00 0.00 58 1014.3
20260501213001 72 201 1.0 6.0 0.00 0.00 0.00 59 1014.8
20260501212603 73 181 2.0 6.0 0.00 0.00 0.00 60 1014.1
20260501211704 73 198 2.0 5.0 0.00 0.00 0.00 59 1014.4
20260501211601 73 131 2.0 5.0 0.00 0.00 0.00 57 1014.9
20260501210803 72 209 2.0 5.0 0.00 0.00 0.00 61 1014.7
20260501210001 71 187 2.0 7.0 0.00 0.00 0.00 62 1015.1
20260501205903 71 164 2.0 8.0 0.00 0.00 0.00 61 1014.8
20260501205003 71 224 2.0 6.0 0.00 0.00 0.00 61 1014.8
20260501204602 71 278 2.0 6.0 0.00 0.00 0.00 63 1015.2
20260501204103 72 231 3.0 7.0 0.00 0.00 0.00 60 1014.8
20260501203204 72 243 2.0 7.0 0.00 0.00 0.00 62 1014.8
20260501203001 71 210 0.0 7.0 0.00 0.00 0.00 65 1015.3
20260501202306 71 266 3.0 6.0 0.00 0.00 0.00 64 1014.9
20260501201602 70 232 2.0 6.0 0.00 0.00 0.00 64 1015.6
20260501201403 71 253 2.0 6.0 0.00 0.00 0.00 62 1015.1
20260501200503 70 162 2.0 6.0 0.00 0.00 0.00 64 1015.0
20260501200004 69 148 1.0 6.0 0.00 0.00 0.00 65 1015.5
20260501195603 69 205 1.0 4.0 0.00 0.00 0.00 67 1015.0
20260501194703 69 212 2.0 6.0 0.00 0.00 0.00 66 1015.1
20260501194604 69 153 0.0 6.0 0.00 0.00 0.00 65 1015.5
20260501193803 69 158 2.0 5.0 0.00 0.00 0.00 67 1015.1
20260501193001 68 238 1.0 6.0 0.00 0.00 0.00 67 1015.7
20260501192903 69 222 2.0 6.0 0.00 0.00 0.00 67 1015.1
20260501192003 68 200 2.0 5.0 0.00 0.00 0.00 66 1015.2
20260501191607 67 188 1.0 5.0 0.00 0.00 0.00 67 1015.7
20260501190203 67 271 2.0 6.0 0.00 0.00 0.00 67 1015.3
20260501190002 66 336 2.0 6.0 0.00 0.00 0.00 68 1015.8
20260501185306 66 251 2.0 6.0 0.00 0.00 0.00 67 1015.5
20260501184601 66 211 1.0 5.0 0.00 0.00 0.00 70 1016.1
20260501184403 66 226 1.0 5.0 0.00 0.00 0.00 70 1015.6
20260501183002 63 213 0.0 4.0 0.00 0.00 0.00 74 1016.1
20260501182603 63 256 1.0 4.0 0.00 0.00 0.00 75 1015.6
20260501181703 62 211 1.0 4.0 0.00 0.00 0.00 76 1015.5
20260501181608 62 207 1.0 4.0 0.00 0.00 0.00 75 1016.0
20260501180803 61 229 1.0 4.0 0.00 0.00 0.00 76 1015.6
20260501180001 60 158 0.0 4.0 0.00 0.00 0.00 76 1016.0